CZ-2D DEB (45802 NORAD) Tracking and Keplerian Element Data

This shows tracking and keplerian element data for the satellite.

Feedback or suggestion? Click here.




ElementValue
Catalog45802
NameCZ-2D DEB
Epoch Orbit242
Epoch Day185.60943206
Epoch Year2020
RAAN307.2123
Inclination97.4414
Eccentricity0.004718
Argument of Perigee252.581
Mean Anonmoly107.0251
Mean Motion15.32244192
Decay Rate1.691E-05
L11 45802U 20039F 20185.60943206 .00001691 00000-0 55140-4 0 9995
L22 45802 97.4414 307.2123 0047180 252.5810 107.0251 15.32244192 2428

Live tracking and technical data element details for CZ-2D DEB (NORAD 45802). CZ-2D DEB can be tracked NOW for your location showing map with azimuth and elevation plus other details from your city location.

Track the satellite on the map from your city or location and see movement details for azimuth, elevation, latitude, longitude, range, height, and movement on the map or in text.







IsCatalogInMostPopularTable: catalog: 45802, numindb: 5
Update: records affected: 1



GetName: 45802 CZ-2D DEB

Hit Count: updated at: Sun, 05 Jul 2020 17:12:05 GMT